Content
SEND FEEDBACK

Daily
Averages
Monthly
Summary
Turkmenistan

ASHGABAT, TURKMENISTAN


Home > Asia > Turkmenistan
Elevation: 775 feet     Latitude: 37 58N     Longitude: 058 20E

WEATHER
 
SELECT A DAY
Number of Records: 181,104;   Date Range: 3/15/97 - 10/19/14
 
SHARE

PRINT THIS DATA

[ ← Previous Day ]
WEATHER ALMANAC - MARCH 31, 2013
[ Next Day → ]
[ °C ]   °F
Weather ElementAverageHighLow
Temperature50.6 °F55.4 °F (1:00 am)46 °F (11:00 pm)
Dewpoint40.9 °F44.6 °F (1:00 am)39 °F (8:00 am)
Humidity67.4 %76 % (5:00 am)51 % (5:00 pm)
Barometer30.39 in30.47 in (11:00 pm)30.27 in (1:00 am)
Wind Speed5.4 mph11.2 mph (2:00 am)
Weather ElementAverage
Visibility6.2 mi
Wind DirectionWSW (241.3 °)

Weather ElementTotal
Precipitation---
Heating Degree Days14.3 (Base 65)
Growing Degree Days0.7 (Base 50)
Averaged from 34 records on March 31, 2013
WEATHER CONDITIONS BREAKOUT
WIND DIRECTION BREAKOUT
WEATHER BY HOUR - MARCH 31, 2013
[ °C ]   °F
Local TimeTemperatureDewpointHumidityBarometerVisibilityWind DirectionWind SpeedGust SpeedPrecipitationEventsConditions
1:00 AM55.4 °F44.6 °F67 %30.27 in6.2 miWest (270°)6.7 mphOvercast
2:00 AM54.0 °F44.0 °F60 %30.30 in6.0 miWNW (300°)11.2 mphOvercast
2:00 AM53.6 °F44.6 °F72 %30.30 in6.2 miWNW (290°)11.2 mphOvercast
3:00 AM53.6 °F44.6 °F72 %30.30 in6.2 miWNW (300°)8.9 mphOvercast
4:00 AM53.6 °F44.6 °F72 %30.30 in6.2 miNW (310°)11.2 mphOvercast
5:00 AM50.0 °F42.0 °F65 %30.35 in6.0 miNorth8.9 mphOvercast
5:00 AM50.0 °F42.8 °F76 %30.33 in6.2 miNorth (350°)6.7 mphOvercast
5:30 AM48.2 °F41.0 °F76 %30.33 in6.2 miNorth (350°)8.9 mphOvercast
6:00 AM48.2 °F41.0 °F76 %30.36 in6.2 miNNW (330°)8.9 mphOvercast
6:30 AM48.2 °F41.0 °F76 %30.36 in6.2 miNNW (330°)8.9 mphRainLight Rain Showers
7:00 AM48.2 °F39.2 °F71 %30.39 in6.2 miNW (310°)6.7 mphRainLight Rain Showers
7:30 AM48.2 °F39.2 °F71 %30.39 in6.2 miNNW (330°)6.7 mphRainLight Rain Showers
8:00 AM48.0 °F39.0 °F63 %30.42 in6.0 miNorth (350°)6.7 mphRainLight Rain Showers
8:00 AM48.2 °F39.2 °F71 %30.39 in6.2 miNW (320°)6.7 mphOvercast
9:00 AM48.2 °F39.2 °F71 %30.42 in6.2 miNNW (330°)6.7 mphOvercast
10:00 AM48.2 °F39.2 °F71 %30.42 in6.2 miVariable2.2 mphOvercast
11:00 AM48.2 °F39.2 °F71 %30.42 in6.2 miNW (310°)4.5 mphOvercast
11:00 AM48.0 °F39.0 °F61 %30.45 in6.0 miNNW (340°)6.7 mphPartly Cloudy
12:00 PM50.0 °F39.2 °F66 %30.42 in6.2 miNNW (330°)6.7 mphOvercast
1:00 PM50.0 °F39.2 °F66 %30.42 in6.2 miNW (320°)4.5 mphOvercast
2:00 PM52.0 °F40.0 °F54 %30.43 in6.0 miCalmOvercast
2:00 PM51.8 °F39.2 °F62 %30.42 in6.2 miNW (310°)4.5 mphOvercast
3:00 PM51.8 °F41.0 °F67 %30.39 in6.2 miWest (260°)4.5 mphOvercast
4:00 PM53.6 °F41.0 °F62 %30.39 in6.2 miNNW (330°)4.5 mphOvercast
5:00 PM53.6 °F41.0 °F62 %30.39 in6.2 miNW (320°)4.5 mphOvercast
5:00 PM54.0 °F41.0 °F51 %30.41 in6.0 miNW (320°)4.5 mphOvercast
6:00 PM53.6 °F41.0 °F62 %30.42 in6.2 miVariable2.2 mphMostly Cloudy
7:00 PM53.6 °F41.0 °F62 %30.42 in6.2 miCalmMostly Cloudy
8:00 PM52.0 °F41.0 °F56 %30.45 in6.0 miCalmPartly Cloudy
8:00 PM51.8 °F41.0 °F67 %30.42 in6.2 miCalmMostly Cloudy
9:00 PM50.0 °F41.0 °F71 %30.42 in6.2 miVariable2.2 mphMostly Cloudy
10:00 PM48.2 °F39.2 °F71 %30.45 in6.2 miCalmMostly Cloudy
11:00 PM46.0 °F41.0 °F75 %30.47 in6.0 miSSW (210°)2.2 mphScattered Clouds
11:00 PM48.2 °F41.0 °F76 %30.42 in6.2 miSSW (200°)4.5 mphScattered Clouds
Hourly data recorded from UTAA, located miles away from Ashgabat, Turkmenistan







STORIES FROM OUR PARTNERS